Location: Axtheid
(49.6213°N, 11.8205°E)
Time: 02:00:56
(UTC+00:00)

Cosmos 614 Rocket - Pass Details

Date: 18 February 2020
Orbit: 733 x 764 km, 74.1° (Epoch: 03 April)

Event Time Altitude Azimuth Distance (km) Brightness Sun altitude
Rises 04:37:56 0° 201° (SSW) 3,177 7.0 -16.9°
Reaches altitude 10° 04:40:16 10° 201° (SSW) 2,262 6.2 -16.5°
Maximum altitude 04:45:25 88° 113° (ESE) 761 3.9 -15.6°
Drops below altitude 10° 04:50:39 10° 24° (NNE) 2,299 6.8 -14.8°
Sets 04:53:02 0° 24° (NNE) 3,232 7.6 -14.4°
